TimeMST,TemperatureF,Dew PointF,Humidity,Sea Level PressureIn,VisibilityMPH,Wind Direction,Wind SpeedMPH,Gust SpeedMPH,PrecipitationIn,Events,Conditions,WindDirDegrees,DateUTC
5:00 AM,9,6,84,30.00,0,SSE,3.5,,,Snow,Snow Grains,150,2012-11-29 12:00:00
5:00 AM,8.6,6.8,92,29.99,0.2,ESE,3.5,-,N/A,Snow,Light Snow Grains,110,2012-11-29 12:00:00
5:17 AM,8.6,5.0,85,29.99,0.2,East,6.9,-,N/A,Fog-Snow,Light Snow Grains,100,2012-11-29 12:17:00
5:38 AM,8.6,5.0,85,29.99,0.8,ESE,9.2,-,N/A,Snow,Light Snow,110,2012-11-29 12:38:00
6:00 AM,8.6,5.0,85,29.99,0.8,ESE,8.1,-,N/A,Snow,Light Snow,120,2012-11-29 13:00:00
7:00 AM,8.6,5.0,85,29.98,0.2,South,6.9,-,N/A,Fog-Snow,Light Snow,170,2012-11-29 14:00:00
7:24 AM,8.6,5.0,85,29.98,0.1,SE,5.8,-,N/A,Fog-Snow,Light Snow Grains,140,2012-11-29 14:24:00
8:00 AM,8.6,5.0,85,29.98,0.1,SE,5.8,-,N/A,Fog-Snow,Light Snow Grains,140,2012-11-29 15:00:00
9:00 AM,8.6,5.0,85,29.99,0.1,SSE,8.1,-,N/A,Fog-Snow,Light Snow Grains,150,2012-11-29 16:00:00
10:00 AM,8.6,5.0,85,29.99,0.4,SSE,6.9,-,N/A,Fog-Snow,Light Snow Grains,150,2012-11-29 17:00:00
10:40 AM,8.6,5.0,85,29.99,1.8,SSE,8.1,-,N/A,Snow,Light Snow Grains,160,2012-11-29 17:40:00
11:00 AM,9,6,82,29.98,2,SSE,6.9,,,Snow,Snow Grains,150,2012-11-29 18:00:00
11:00 AM,8.6,6.8,92,29.98,2.0,SSE,8.1,-,N/A,Snow,Light Snow Grains,150,2012-11-29 18:00:00
11:23 AM,8.6,6.8,92,29.98,2.5,SSE,8.1,-,N/A,Snow,Light Snow Grains,150,2012-11-29 18:23:00
12:00 PM,8.6,6.8,92,29.97,2.5,SE,8.1,-,N/A,Snow,Light Snow Grains,130,2012-11-29 19:00:00
12:20 PM,8.6,6.8,92,29.96,3.0,ESE,9.2,-,N/A,Snow,Light Snow Grains,120,2012-11-29 19:20:00
1:00 PM,8.6,6.8,92,29.95,4.0,SSE,9.2,-,N/A,Snow,Light Snow Grains,150,2012-11-29 20:00:00
2:00 PM,10.4,6.8,85,29.93,4.0,SSE,9.2,-,N/A,Snow,Light Snow,150,2012-11-29 21:00:00
3:00 PM,10.4,6.8,85,29.91,4.0,ESE,8.1,-,N/A,Snow,Light Snow,110,2012-11-29 22:00:00
4:00 PM,12.2,8.6,85,29.91,4.0,SE,8.1,-,N/A,Snow,Light Snow,130,2012-11-29 23:00:00
5:00 PM,11,8,83,29.91,4,ESE,6.9,,,Snow,Light Snow,110,2012-11-30 00:00:00
5:00 PM,10.4,8.6,92,29.91,4.0,ESE,8.1,-,N/A,Snow,Light Snow,110,2012-11-30 00:00:00
5:23 PM,12.2,8.6,85,29.90,0.6,SSE,6.9,-,N/A,Snow,Light Snow Grains,160,2012-11-30 00:23:00
5:33 PM,12.2,8.6,85,29.89,0.5,SSE,5.8,-,N/A,Fog-Snow,Light Snow Grains,150,2012-11-30 00:33:00
6:00 PM,12.2,8.6,85,29.88,0.4,SE,6.9,-,N/A,Fog-Snow,Light Snow Grains,140,2012-11-30 01:00:00
7:00 PM,12.2,8.6,85,29.89,0.2,SE,5.8,-,N/A,Fog-Snow,Light Snow Grains,140,2012-11-30 02:00:00
8:00 PM,12.2,8.6,85,29.85,0.1,SE,5.8,-,N/A,Fog-Snow,Light Snow Grains,140,2012-11-30 03:00:00
9:00 PM,10.4,8.6,92,29.86,0.1,SSW,4.6,-,N/A,Fog-Snow,Light Snow Grains,200,2012-11-30 04:00:00
10:00 PM,10.4,8.6,92,29.84,0.1,SSE,3.5,-,N/A,Fog-Snow,Light Snow Grains,150,2012-11-30 05:00:00